Skip Page Navigation
NASA JPL Caltech
NASA Logo - Jet Propulsion Laboratory + View the NASA Portal
+ Center for Near-Earth Object Studies
JPL Home Earth Solar System Stars & Galaxies Technology
JPL Solar System Dynamics
BODIES ORBITS EPHEMERIDES TOOLS PHYSICAL DATA DISCOVERY FAQ SITE MAP
JPL Small-Body Database Browser
Search: [ help ]  
85982 (1999 HQ6)
Classification: Main-belt Asteroid          SPK-ID: 2085982
Ephemeris | Orbit Diagram | Orbital Elements | Mission Design | Physical Parameters | Discovery Circumstances | Close-Approach Data ]

[ show orbit diagram ]
Orbital Elements at Epoch 2459000.5 (2020-May-31.0) TDB
Reference: JPL 26 (heliocentric ecliptic J2000)
 Element Value Uncertainty (1-sigma)   Units 
e .1141443459140024 5.2701e-08  
a 2.692091643426939 1.3769e-08 au
q 2.38480460364742 1.4409e-07 au
i 8.902797702900072 5.6696e-06 deg
node 2.293330325673877 2.7097e-05 deg
peri 351.5128854620784 3.3458e-05 deg
M 118.7997107125063 1.8604e-05 deg
tp 2458468.090165396999
(2018-Dec-15.59016540)
8.3085e-05 TDB
period 1613.367063838339
4.42
1.2377e-05
3.389e-08
d
yr
n .2231358306915781 1.7119e-09 deg/d
Q 2.999378683206459 1.534e-08 au
  Orbit Determination Parameters
   # obs. used (total)      1343  
   data-arc span      7622 days (20.87 yr)  
   first obs. used      1999-03-22  
   last obs. used      2020-02-02  
   planetary ephem.      DE431  
   SB-pert. ephem.      SB431-N16  
   condition code      0  
   norm. resid. RMS      .52335  
   source      ORB  
   producer      Otto Matic  
   solution date      2020-Feb-23 20:42:22  

Additional Information
 Earth MOID = 1.38046 au 
 Jupiter MOID = 2.43384 au 
 T_jup = 3.345 
[ hide covariance matrix ]
Orbital Elements at Epoch 2456413.5 (2013-May-01.0) TDB
Reference: JPL 26 (heliocentric ecliptic J2000)
 Element Value Uncertainty (1-sigma)   Units 
e .1151268876636475 5.3101e-08  
q 2.381794632425272 1.4537e-07 au
tp 2456848.375803260652
(2014-Jul-09.87580326)
8.1769e-05 TDB
node 2.360734250246464 2.7069e-05 deg
peri 350.1287555639158 3.3266e-05 deg
i 8.910980863385989 5.6725e-06 deg
  Orbit Determination Parameters
   # obs. used (total)      1343  
   data-arc span      7622 days (20.87 yr)  
   first obs. used      1999-03-22  
   last obs. used      2020-02-02  
   planetary ephem.      DE431  
   SB-pert. ephem.      SB431-N16  
   condition code      0  
   norm. resid. RMS      .52335  
   source      ORB  
   producer      Otto Matic  
   solution date      2020-Feb-23 20:42:22  

Additional Information
 Jupiter MOID = 2.43384 au 
 T_jup = 3.345 
Orbit Covariance (6×6)
  e q tp node peri i
e 2.819670947909025E-15 -7.692975123925373E-15 -2.217082727917034E-13 -1.312036635634923E-15 -1.082257650436915E-13 -3.340417063840284E-15
q -7.692975123925373E-15 2.113212078996647E-14 5.260892553537927E-13 3.770204535772753E-15 2.679371901803662E-13 9.186951763941687E-15
tp -2.217082727917034E-13 5.260892553537927E-13 6.686093174767922E-9 4.085410218012993E-12 1.592298861252509E-9 -2.817891323676913E-12
node -1.312036635634923E-15 3.770204535772753E-15 4.085410218012993E-12 7.327399279838738E-10 -7.223090069231149E-10 -1.645706092455065E-11
peri -1.082257650436915E-13 2.679371901803662E-13 1.592298861252509E-9 -7.223090069231149E-10 1.106595140042021E-9 1.562236392422791E-11
i -3.340417063840284E-15 9.186951763941687E-15 -2.817891323676913E-12 -1.645706092455065E-11 1.562236392422791E-11 3.217755432791956E-11

Ephemeris | Orbit Diagram | Orbital Elements | Mission Design | Physical Parameters | Discovery Circumstances | Close-Approach Data ]

Physical Parameter Table
Parameter Symbol Value Units Sigma Reference Notes
absolute magnitude H 14.4   n/a MPO366219  

85982 (1999 HQ6)          Discovered 1999-Apr-19 by Spacewatch at Kitt Peak
Reference: 20040830/Numbers.arcLast Updated: 2004-09-06

[ show close-approach data ]
Alternate Designations
 1999 HQ6 = 2001 SK110 
Ephemeris | Orbit Diagram | Orbital Elements | Mission Design | Physical Parameters | Discovery Circumstances | Close-Approach Data ]
ABOUT SSD CREDITS/AWARDS PRIVACY/COPYRIGHT GLOSSARY LINKS
FirstGov 2020-Oct-27 03:35 UT
(server date/time)  
NASA Home Page
Site Manager:   Ryan S. Park
Webmaster  Alan B. Chamberlin